Location: Baia Mare
(47.6567°N, 23.5850°E)
Time: 22:26:45
(UTC+03:00)

ISS - Pass Details

Date: 25 March 2020
Orbit: 418 x 423 km, 51.6° (Epoch: 11 April)

Event Time Altitude Azimuth Distance (km) Brightness Sun altitude
Rises 21:36:59 0° 288° (WNW) 2,367 1.1 -27.3°
Reaches altitude 10° 21:39:09 10° 295° (WNW) 1,503 0.0 -27.6°
Enters shadow 21:40:31 21° 306° (NW) 993 -1.2 -27.8°
